Private Wetterstation Sandau
Wetterdaten: Freitag, 20.01.2012
Datum Zeit Temp. A. Feuchte A. Luftdruck Regen Wind Richtung Richtung Taupunkt Windchill
20.01.2012 00:02 3,4 C 87 % 1008,4 hPa 0,0 l/m 19,8 km/h (3 Bft) W 270 1,4 C -0,9 C
20.01.2012 00:07 3,4 C 87 % 1008,5 hPa 0,0 l/m 10,1 km/h (2 Bft) W-SW 247 1,4 C 0,7 C
20.01.2012 00:12 3,3 C 87 % 1008,3 hPa 0,0 l/m 6,1 km/h (2 Bft) W-NW 292 1,3 C 1,7 C
20.01.2012 00:17 3,3 C 87 % 1008,4 hPa 0,0 l/m 6,8 km/h (2 Bft) W-SW 247 1,3 C 1,5 C
20.01.2012 00:22 3,2 C 87 % 1008,4 hPa 0,0 l/m 5,8 km/h (2 Bft) W 270 1,2 C 1,7 C
20.01.2012 00:27 3,1 C 87 % 1008,3 hPa 0,0 l/m 17,3 km/h (3 Bft) W-SW 247 1,2 C -1,0 C
20.01.2012 00:32 3,1 C 87 % 1008,3 hPa 0,0 l/m 13,3 km/h (3 Bft) W-NW 292 1,2 C -0,3 C
20.01.2012 00:37 3,1 C 87 % 1008,2 hPa 0,0 l/m 14,4 km/h (3 Bft) W 270 1,2 C -0,5 C
20.01.2012 00:42 3,0 C 87 % 1008,4 hPa 0,0 l/m 7,9 km/h (2 Bft) W 270 1,1 C 0,8 C
20.01.2012 00:47 3,0 C 87 % 1008,2 hPa 0,0 l/m 6,1 km/h (2 Bft) W 270 1,1 C 1,4 C
20.01.2012 00:52 2,9 C 87 % 1008,1 hPa 0,0 l/m 14,4 km/h (3 Bft) SW 225 1,0 C -0,7 C
20.01.2012 00:57 2,9 C 87 % 1008,1 hPa 0,0 l/m 9,4 km/h (2 Bft) W 270 1,0 C 0,3 C
20.01.2012 01:02 2,9 C 87 % 1008,1 hPa 0,0 l/m 7,2 km/h (2 Bft) W 270 1,0 C 0,9 C
20.01.2012 01:07 2,9 C 87 % 1008,2 hPa 0,0 l/m 13,0 km/h (3 Bft) W 270 1,0 C -0,5 C
20.01.2012 01:12 2,9 C 87 % 1007,9 hPa 0,0 l/m 7,2 km/h (2 Bft) W-SW 247 1,0 C 0,9 C
20.01.2012 01:17 2,8 C 87 % 1008,0 hPa 0,0 l/m 9,4 km/h (2 Bft) SW 225 0,9 C 0,2 C
20.01.2012 01:22 2,8 C 87 % 1007,9 hPa 0,0 l/m 8,6 km/h (2 Bft) W-NW 292 0,9 C 0,4 C
20.01.2012 01:27 2,8 C 87 % 1008,1 hPa 0,0 l/m 10,1 km/h (2 Bft) W-SW 247 0,9 C 0,0 C
20.01.2012 01:32 2,7 C 87 % 1007,9 hPa 0,0 l/m 11,9 km/h (2 Bft) W-SW 247 0,8 C -0,5 C
20.01.2012 01:37 2,7 C 87 % 1007,9 hPa 0,0 l/m 13,0 km/h (3 Bft) W-SW 247 0,8 C -0,7 C
20.01.2012 01:42 2,7 C 87 % 1007,9 hPa 0,0 l/m 20,9 km/h (4 Bft) W 270 0,8 C -2,0 C
20.01.2012 01:47 2,6 C 87 % 1007,8 hPa 0,0 l/m 23,8 km/h (4 Bft) W 270 0,7 C -2,4 C
20.01.2012 01:52 2,7 C 87 % 1007,9 hPa 0,0 l/m 8,3 km/h (2 Bft) W-SW 247 0,8 C 0,3 C
20.01.2012 01:57 2,7 C 87 % 1007,8 hPa 0,0 l/m 11,5 km/h (2 Bft) W-SW 247 0,8 C -0,4 C
20.01.2012 02:02 2,6 C 87 % 1007,5 hPa 0,0 l/m 16,2 km/h (3 Bft) SW 225 0,7 C -1,4 C
20.01.2012 02:07 2,6 C 87 % 1007,4 hPa 0,0 l/m 20,9 km/h (4 Bft) W 270 0,7 C -2,1 C
20.01.2012 02:12 2,6 C 87 % 1007,3 hPa 0,0 l/m 9,7 km/h (2 Bft) W-SW 247 0,7 C -0,1 C
20.01.2012 02:17 2,6 C 87 % 1007,2 hPa 0,0 l/m 16,6 km/h (3 Bft) SW 225 0,7 C -1,5 C
20.01.2012 02:22 2,6 C 87 % 1007,2 hPa 0,0 l/m 8,6 km/h (2 Bft) W-SW 247 0,7 C 0,1 C
20.01.2012 02:27 2,6 C 87 % 1007,0 hPa 0,0 l/m 10,8 km/h (2 Bft) W-SW 247 0,7 C -0,4 C
20.01.2012 02:32 2,5 C 87 % 1006,7 hPa 0,0 l/m 7,2 km/h (2 Bft) W-SW 247 0,6 C 0,4 C
20.01.2012 02:37 2,6 C 87 % 1006,8 hPa 0,0 l/m 6,1 km/h (2 Bft) S 180 0,7 C 0,9 C
20.01.2012 02:42 2,6 C 87 % 1006,9 hPa 0,0 l/m 9,4 km/h (2 Bft) W 270 0,7 C -0,1 C
20.01.2012 02:47 2,5 C 88 % 1006,6 hPa 0,0 l/m 9,7 km/h (2 Bft) W 270 0,7 C -0,3 C
20.01.2012 02:52 2,6 C 88 % 1006,4 hPa 0,0 l/m 7,6 km/h (2 Bft) SW 225 0,8 C 0,4 C
20.01.2012 02:57 2,6 C 88 % 1006,5 hPa 0,0 l/m 5,4 km/h (1 Bft) SW 225 0,8 C 1,2 C
20.01.2012 03:02 2,6 C 88 % 1006,3 hPa 0,0 l/m 10,8 km/h (2 Bft) W-SW 247 0,8 C -0,4 C
20.01.2012 03:07 2,6 C 88 % 1006,0 hPa 0,0 l/m 7,2 km/h (2 Bft) W-SW 247 0,8 C 0,6 C
20.01.2012 03:12 2,6 C 88 % 1006,0 hPa 0,0 l/m 9,4 km/h (2 Bft) W-SW 247 0,8 C -0,1 C
20.01.2012 03:17 2,6 C 88 % 1005,9 hPa 0,0 l/m 17,6 km/h (3 Bft) W-SW 247 0,8 C -1,6 C
20.01.2012 03:22 2,6 C 88 % 1005,8 hPa 0,0 l/m 12,2 km/h (2 Bft) SW 225 0,8 C -0,7 C
20.01.2012 03:27 2,7 C 88 % 1005,6 hPa 0,0 l/m 9,4 km/h (2 Bft) SW 225 0,9 C 0,1 C
20.01.2012 03:32 2,8 C 87 % 1005,5 hPa 0,0 l/m 16,6 km/h (3 Bft) W-SW 247 0,9 C -1,2 C
20.01.2012 03:37 2,8 C 88 % 1005,2 hPa 0,0 l/m 10,1 km/h (2 Bft) S-SW 202 1,0 C 0,0 C
20.01.2012 03:42 2,9 C 87 % 1005,2 hPa 0,0 l/m 9,4 km/h (2 Bft) S-SO 157 1,0 C 0,3 C
20.01.2012 03:47 2,9 C 87 % 1005,1 hPa 0,5 l/m 12,6 km/h (3 Bft) SW 225 1,0 C -0,4 C
20.01.2012 03:52 2,9 C 87 % 1005,1 hPa 0,0 l/m 5,8 km/h (2 Bft) W-SW 247 1,0 C 1,4 C
20.01.2012 03:57 2,9 C 87 % 1005,1 hPa 0,0 l/m 22,0 km/h (4 Bft) SW 225 1,0 C -1,8 C
20.01.2012 04:02 2,9 C 87 % 1005,1 hPa 0,5 l/m 11,5 km/h (2 Bft) W-SW 247 1,0 C -0,2 C
20.01.2012 04:07 2,9 C 88 % 1004,9 hPa 0,0 l/m 16,6 km/h (3 Bft) W 270 1,1 C -1,1 C
20.01.2012 04:12 2,9 C 88 % 1004,8 hPa 0,0 l/m 11,9 km/h (2 Bft) W-SW 247 1,1 C -0,3 C
20.01.2012 04:17 2,9 C 88 % 1004,6 hPa 0,0 l/m 15,8 km/h (3 Bft) SW 225 1,1 C -1,0 C
20.01.2012 04:22 2,9 C 88 % 1004,6 hPa 0,0 l/m 10,4 km/h (2 Bft) W-SW 247 1,1 C 0,1 C
20.01.2012 04:27 2,8 C 88 % 1004,5 hPa 0,0 l/m 6,1 km/h (2 Bft) SW 225 1,0 C 1,2 C
20.01.2012 04:32 2,8 C 88 % 1004,4 hPa 0,0 l/m 16,9 km/h (3 Bft) W 270 1,0 C -1,3 C
20.01.2012 04:37 2,8 C 89 % 1004,3 hPa 0,5 l/m 8,3 km/h (2 Bft) W-SW 247 1,2 C 0,5 C
20.01.2012 04:42 2,8 C 89 % 1004,4 hPa 0,0 l/m 11,2 km/h (2 Bft) W-SW 247 1,2 C -0,2 C
20.01.2012 04:47 2,9 C 89 % 1004,1 hPa 0,0 l/m 14,4 km/h (3 Bft) S-SW 202 1,3 C -0,7 C
20.01.2012 04:52 2,9 C 89 % 1004,0 hPa 0,0 l/m 23,0 km/h (4 Bft) W 270 1,3 C -2,0 C
20.01.2012 04:57 3,0 C 89 % 1004,1 hPa 0,0 l/m 22,0 km/h (4 Bft) SW 225 1,4 C -1,7 C
20.01.2012 05:02 3,1 C 89 % 1003,9 hPa 0,0 l/m 25,6 km/h (4 Bft) SW 225 1,5 C -2,0 C
20.01.2012 05:07 3,1 C 89 % 1004,0 hPa 0,0 l/m 24,5 km/h (4 Bft) W-SW 247 1,5 C -1,9 C
20.01.2012 05:12 3,1 C 89 % 1003,8 hPa 0,0 l/m 12,2 km/h (2 Bft) W-SW 247 1,5 C -0,1 C
20.01.2012 05:17 3,2 C 89 % 1003,8 hPa 0,0 l/m 8,3 km/h (2 Bft) W 270 1,6 C 0,9 C
20.01.2012 05:22 3,2 C 89 % 1003,8 hPa 0,0 l/m 11,2 km/h (2 Bft) W-SW 247 1,6 C 0,2 C
20.01.2012 05:27 3,2 C 89 % 1003,8 hPa 0,0 l/m 19,1 km/h (3 Bft) SW 225 1,6 C -1,1 C
20.01.2012 05:32 3,2 C 89 % 1003,6 hPa 0,0 l/m 25,2 km/h (4 Bft) W-SW 247 1,6 C -1,8 C
20.01.2012 05:37 3,1 C 89 % 1003,7 hPa 0,0 l/m 24,8 km/h (4 Bft) SW 225 1,5 C -1,9 C
20.01.2012 05:42 3,1 C 89 % 1003,7 hPa 0,0 l/m 19,1 km/h (3 Bft) W-SW 247 1,5 C -1,2 C
20.01.2012 05:47 3,1 C 89 % 1003,7 hPa 0,0 l/m 20,9 km/h (4 Bft) W-SW 247 1,5 C -1,4 C
20.01.2012 05:52 3,1 C 89 % 1003,4 hPa 0,0 l/m 23,4 km/h (4 Bft) W-SW 247 1,5 C -1,7 C
20.01.2012 05:57 3,1 C 89 % 1003,5 hPa 0,0 l/m 14,4 km/h (3 Bft) W 270 1,5 C -0,5 C
20.01.2012 06:02 3,1 C 89 % 1003,5 hPa 0,0 l/m 15,5 km/h (3 Bft) SW 225 1,5 C -0,7 C
20.01.2012 06:07 3,1 C 89 % 1003,4 hPa 0,0 l/m 9,7 km/h (2 Bft) W 270 1,5 C 0,5 C
20.01.2012 06:12 3,1 C 89 % 1003,4 hPa 0,0 l/m 21,6 km/h (4 Bft) SW 225 1,5 C -1,5 C
20.01.2012 06:17 3,0 C 89 % 1003,4 hPa 0,0 l/m 21,6 km/h (4 Bft) W-SW 247 1,4 C -1,7 C
20.01.2012 06:22 3,0 C 89 % 1003,4 hPa 0,0 l/m 31,0 km/h (5 Bft) W-SW 247 1,4 C -2,7 C
20.01.2012 06:27 3,1 C 89 % 1003,4 hPa 0,0 l/m 22,0 km/h (4 Bft) W 270 1,5 C -1,6 C
20.01.2012 06:32 3,1 C 89 % 1003,4 hPa 0,0 l/m 18,4 km/h (3 Bft) W-SW 247 1,5 C -1,1 C
20.01.2012 06:37 3,1 C 89 % 1003,4 hPa 0,5 l/m 18,4 km/h (3 Bft) W-NW 292 1,5 C -1,1 C
20.01.2012 06:42 3,1 C 89 % 1003,3 hPa 0,0 l/m 6,5 km/h (2 Bft) S 180 1,5 C 1,4 C
20.01.2012 06:47 3,2 C 88 % 1003,3 hPa 0,0 l/m 24,1 km/h (4 Bft) W-SW 247 1,4 C -1,7 C
20.01.2012 06:52 3,2 C 88 % 1003,1 hPa 0,0 l/m 20,9 km/h (4 Bft) W 270 1,4 C -1,3 C
20.01.2012 06:57 3,2 C 87 % 1003,1 hPa 0,0 l/m 15,5 km/h (3 Bft) SW 225 1,2 C -0,6 C
20.01.2012 07:02 3,2 C 87 % 1003,0 hPa 0,0 l/m 19,8 km/h (3 Bft) W 270 1,2 C -1,2 C
20.01.2012 07:07 3,2 C 87 % 1002,8 hPa 0,0 l/m 23,0 km/h (4 Bft) W-SW 247 1,2 C -1,6 C
20.01.2012 07:12 3,2 C 87 % 1002,9 hPa 0,0 l/m 29,9 km/h (5 Bft) W 270 1,2 C -2,3 C
20.01.2012 07:17 3,2 C 87 % 1002,8 hPa 0,0 l/m 26,6 km/h (4 Bft) W-SW 247 1,2 C -2,0 C
20.01.2012 07:22 3,2 C 87 % 1002,9 hPa 0,0 l/m 20,9 km/h (4 Bft) W-NW 292 1,2 C -1,3 C
20.01.2012 07:27 3,2 C 87 % 1002,9 hPa 0,0 l/m 11,9 km/h (2 Bft) W 270 1,2 C 0,1 C
20.01.2012 07:32 3,1 C 87 % 1003,1 hPa 0,0 l/m 11,9 km/h (2 Bft) SW 225 1,2 C -0,0 C
20.01.2012 07:37 3,2 C 86 % 1003,2 hPa 0,0 l/m 12,2 km/h (2 Bft) W 270 1,1 C 0,0 C
20.01.2012 07:42 3,2 C 86 % 1003,1 hPa 0,0 l/m 13,0 km/h (3 Bft) SW 225 1,1 C -0,1 C
20.01.2012 07:47 3,2 C 86 % 1003,2 hPa 0,0 l/m 29,2 km/h (5 Bft) W 270 1,1 C -2,2 C
20.01.2012 07:52 3,2 C 86 % 1003,3 hPa 0,0 l/m 20,9 km/h (4 Bft) NW 315 1,1 C -1,3 C
20.01.2012 07:57 3,3 C 85 % 1003,2 hPa 0,0 l/m 9,7 km/h (2 Bft) W 270 1,0 C 0,7 C
20.01.2012 08:02 3,2 C 85 % 1003,5 hPa 0,0 l/m 20,9 km/h (4 Bft) W 270 0,9 C -1,3 C
20.01.2012 08:07 3,1 C 85 % 1003,7 hPa 0,0 l/m 26,3 km/h (4 Bft) W-NW 292 0,8 C -2,1 C
20.01.2012 08:12 3,0 C 86 % 1003,4 hPa 0,0 l/m 17,3 km/h (3 Bft) W-SW 247 0,9 C -1,1 C
20.01.2012 08:17 2,9 C 86 % 1003,7 hPa 0,0 l/m 26,6 km/h (4 Bft) W 270 0,8 C -2,4 C
20.01.2012 08:22 2,9 C 86 % 1003,8 hPa 0,0 l/m 14,4 km/h (3 Bft) W 270 0,8 C -0,7 C
20.01.2012 08:27 2,8 C 86 % 1004,0 hPa 0,0 l/m 17,6 km/h (3 Bft) W 270 0,7 C -1,4 C
20.01.2012 08:32 2,8 C 86 % 1003,8 hPa 0,0 l/m 11,2 km/h (2 Bft) W 270 0,7 C -0,2 C
20.01.2012 08:37 2,7 C 86 % 1003,9 hPa 0,0 l/m 14,4 km/h (3 Bft) W-NW 292 0,6 C -1,0 C
20.01.2012 08:42 2,7 C 87 % 1003,9 hPa 0,0 l/m 24,8 km/h (4 Bft) W-NW 292 0,8 C -2,4 C
20.01.2012 08:47 2,6 C 87 % 1004,2 hPa 0,0 l/m 18,4 km/h (3 Bft) W-NW 292 0,7 C -1,7 C
20.01.2012 08:52 2,5 C 87 % 1004,3 hPa 0,0 l/m 22,7 km/h (4 Bft) W-NW 292 0,6 C -2,4 C
20.01.2012 08:57 2,5 C 87 % 1004,5 hPa 0,0 l/m 16,9 km/h (3 Bft) W-NW 292 0,6 C -1,6 C
20.01.2012 09:02 2,4 C 87 % 1004,5 hPa 0,0 l/m 17,6 km/h (3 Bft) W 270 0,5 C -1,9 C
20.01.2012 09:07 2,4 C 87 % 1004,6 hPa 0,0 l/m 12,6 km/h (3 Bft) W-NW 292 0,5 C -1,0 C
20.01.2012 09:12 2,4 C 87 % 1004,8 hPa 0,0 l/m 11,9 km/h (2 Bft) O-SO 112 0,5 C -0,9 C
20.01.2012 09:17 2,4 C 88 % 1005,0 hPa 0,0 l/m 16,2 km/h (3 Bft) W-NW 292 0,6 C -1,7 C
20.01.2012 09:22 2,4 C 88 % 1005,1 hPa 0,0 l/m 5,8 km/h (2 Bft) W-NW 292 0,6 C 0,8 C
20.01.2012 09:27 2,4 C 87 % 1005,2 hPa 0,0 l/m 10,8 km/h (2 Bft) W-NW 292 0,5 C -0,6 C
20.01.2012 09:32 2,4 C 87 % 1005,3 hPa 0,0 l/m 18,4 km/h (3 Bft) N-NW 337 0,5 C -2,0 C
20.01.2012 09:37 2,5 C 87 % 1005,5 hPa 0,0 l/m 9,4 km/h (2 Bft) W 270 0,6 C -0,2 C
20.01.2012 09:42 2,5 C 87 % 1005,6 hPa 0,0 l/m 14,8 km/h (3 Bft) W 270 0,6 C -1,3 C
20.01.2012 09:47 2,6 C 87 % 1005,6 hPa 0,0 l/m 9,7 km/h (2 Bft) W-NW 292 0,7 C -0,1 C
20.01.2012 09:52 2,5 C 87 % 1005,7 hPa 0,0 l/m 20,2 km/h (4 Bft) W-NW 292 0,6 C -2,1 C
20.01.2012 09:57 2,5 C 87 % 1005,8 hPa 0,0 l/m 5,8 km/h (2 Bft) W-NW 292 0,6 C 0,9 C
20.01.2012 10:02 2,5 C 87 % 1005,9 hPa 0,0 l/m 8,6 km/h (2 Bft) NW 315 0,6 C 0,0 C
20.01.2012 10:07 2,5 C 87 % 1006,2 hPa 0,0 l/m 14,8 km/h (3 Bft) N-NW 337 0,6 C -1,3 C
20.01.2012 10:12 2,5 C 87 % 1006,3 hPa 0,0 l/m 16,2 km/h (3 Bft) NW 315 0,6 C -1,5 C
20.01.2012 10:17 2,5 C 87 % 1006,4 hPa 0,0 l/m 7,2 km/h (2 Bft) W-NW 292 0,6 C 0,4 C
20.01.2012 10:22 2,5 C 87 % 1006,5 hPa 0,0 l/m 12,6 km/h (3 Bft) W-NW 292 0,6 C -0,9 C
20.01.2012 10:27 2,5 C 87 % 1006,7 hPa 0,0 l/m 5,0 km/h (1 Bft) NW 315 0,6 C 1,2 C
20.01.2012 10:32 2,6 C 87 % 1006,9 hPa 0,0 l/m 10,1 km/h (2 Bft) NW 315 0,7 C -0,2 C
20.01.2012 10:37 2,7 C 87 % 1007,1 hPa 0,0 l/m 6,5 km/h (2 Bft) N 360 0,8 C 0,9 C
20.01.2012 10:42 2,8 C 87 % 1007,1 hPa 0,0 l/m 3,2 km/h (1 Bft) NW 315 0,9 C 2,8 C
20.01.2012 10:47 2,8 C 87 % 1007,1 hPa 0,0 l/m 11,9 km/h (2 Bft) W 270 0,9 C -0,4 C
20.01.2012 10:52 2,9 C 87 % 1007,3 hPa 0,0 l/m 10,8 km/h (2 Bft) N 360 1,0 C -0,0 C
20.01.2012 10:57 2,9 C 87 % 1007,3 hPa 0,0 l/m 18,4 km/h (3 Bft) NW 315 1,0 C -1,4 C
20.01.2012 11:02 2,9 C 87 % 1007,6 hPa 0,0 l/m 4,0 km/h (1 Bft) NW 315 1,0 C 2,9 C
20.01.2012 11:07 3,0 C 87 % 1007,6 hPa 0,0 l/m 14,0 km/h (3 Bft) W 270 1,1 C -0,5 C
20.01.2012 11:12 3,0 C 87 % 1007,9 hPa 0,0 l/m 12,2 km/h (2 Bft) W-NW 292 1,1 C -0,2 C
20.01.2012 11:17 3,1 C 87 % 1008,0 hPa 0,0 l/m 10,1 km/h (2 Bft) NW 315 1,2 C 0,4 C
20.01.2012 11:22 3,1 C 87 % 1008,0 hPa 0,0 l/m 6,8 km/h (2 Bft) NW 315 1,2 C 1,3 C
20.01.2012 11:27 3,1 C 86 % 1008,1 hPa 0,0 l/m 13,3 km/h (3 Bft) NW 315 1,0 C -0,3 C
20.01.2012 11:32 3,1 C 86 % 1007,9 hPa 0,0 l/m 8,3 km/h (2 Bft) W 270 1,0 C 0,8 C
20.01.2012 11:37 3,3 C 86 % 1008,0 hPa 0,0 l/m 10,8 km/h (2 Bft) NW 315 1,2 C 0,4 C
20.01.2012 11:42 3,3 C 86 % 1008,2 hPa 0,0 l/m 13,7 km/h (3 Bft) W-NW 292 1,2 C -0,1 C
20.01.2012 11:47 3,3 C 86 % 1008,1 hPa 0,0 l/m 19,1 km/h (3 Bft) W-NW 292 1,2 C -1,0 C
20.01.2012 11:52 3,2 C 86 % 1008,2 hPa 0,0 l/m 15,8 km/h (3 Bft) W 270 1,1 C -0,6 C
20.01.2012 11:57 3,3 C 86 % 1008,1 hPa 0,0 l/m 10,1 km/h (2 Bft) W 270 1,2 C 0,6 C
20.01.2012 12:02 3,2 C 86 % 1008,1 hPa 0,0 l/m 5,8 km/h (2 Bft) SW 225 1,1 C 1,7 C
20.01.2012 12:07 3,2 C 86 % 1008,1 hPa 0,0 l/m 13,3 km/h (3 Bft) NW 315 1,1 C -0,2 C
20.01.2012 12:12 3,1 C 86 % 1008,1 hPa 0,0 l/m 6,1 km/h (2 Bft) W-NW 292 1,0 C 1,5 C
20.01.2012 12:17 3,1 C 86 % 1008,2 hPa 0,0 l/m 13,7 km/h (3 Bft) W-NW 292 1,0 C -0,4 C
20.01.2012 12:22 3,0 C 87 % 1008,3 hPa 0,0 l/m 20,9 km/h (4 Bft) W 270 1,1 C -1,6 C
20.01.2012 12:27 2,9 C 87 % 1008,4 hPa 0,5 l/m 10,4 km/h (2 Bft) S-SW 202 1,0 C 0,1 C
20.01.2012 12:32 2,8 C 86 % 1008,4 hPa 0,0 l/m 6,5 km/h (2 Bft) W 270 0,7 C 1,0 C
20.01.2012 12:37 2,7 C 87 % 1008,3 hPa 0,0 l/m 6,1 km/h (2 Bft) W 270 0,8 C 1,0 C
20.01.2012 12:42 2,6 C 87 % 1008,1 hPa 0,0 l/m 3,2 km/h (1 Bft) W 270 0,7 C 2,6 C
20.01.2012 12:47 2,6 C 88 % 1008,4 hPa 0,0 l/m 2,2 km/h (1 Bft) W 270 0,8 C 2,6 C
20.01.2012 12:52 2,7 C 88 % 1008,4 hPa 0,0 l/m 9,4 km/h (2 Bft) W-SW 247 0,9 C 0,1 C
20.01.2012 12:57 2,8 C 89 % 1008,4 hPa 0,0 l/m 19,1 km/h (3 Bft) W 270 1,2 C -1,6 C
20.01.2012 13:02 2,8 C 89 % 1008,5 hPa 0,0 l/m 14,8 km/h (3 Bft) W-NW 292 1,2 C -0,9 C
20.01.2012 13:07 2,9 C 89 % 1008,6 hPa 0,0 l/m 5,4 km/h (1 Bft) W-SW 247 1,3 C 1,5 C
20.01.2012 13:12 3,0 C 89 % 1008,5 hPa 0,0 l/m 13,7 km/h (3 Bft) W 270 1,4 C -0,5 C
20.01.2012 13:17 3,1 C 89 % 1008,4 hPa 0,0 l/m 16,6 km/h (3 Bft) W-SW 247 1,5 C -0,8 C
20.01.2012 13:22 3,1 C 88 % 1008,5 hPa 0,0 l/m 18,4 km/h (3 Bft) W 270 1,3 C -1,1 C
20.01.2012 13:27 3,1 C 88 % 1008,5 hPa 0,0 l/m 8,6 km/h (2 Bft) W 270 1,3 C 0,7 C
20.01.2012 13:32 3,2 C 88 % 1008,4 hPa 0,0 l/m 11,9 km/h (2 Bft) W 270 1,4 C 0,1 C
20.01.2012 13:37 3,2 C 88 % 1008,5 hPa 0,0 l/m 14,4 km/h (3 Bft) W-NW 292 1,4 C -0,4 C
20.01.2012 13:42 3,3 C 88 % 1008,5 hPa 0,0 l/m 8,6 km/h (2 Bft) W 270 1,5 C 1,0 C
20.01.2012 13:47 3,3 C 88 % 1008,4 hPa 0,0 l/m 10,8 km/h (2 Bft) W 270 1,5 C 0,4 C
20.01.2012 13:52 3,3 C 88 % 1008,5 hPa 0,0 l/m 10,1 km/h (2 Bft) W 270 1,5 C 0,6 C
20.01.2012 13:57 3,3 C 88 % 1008,5 hPa 0,0 l/m 7,6 km/h (2 Bft) W 270 1,5 C 1,3 C
20.01.2012 14:02 3,3 C 88 % 1008,4 hPa 0,0 l/m 14,8 km/h (3 Bft) W 270 1,5 C -0,3 C
20.01.2012 14:07 3,4 C 88 % 1008,4 hPa 0,0 l/m 20,2 km/h (4 Bft) W 270 1,6 C -1,0 C
20.01.2012 14:12 3,4 C 88 % 1008,5 hPa 0,0 l/m 9,7 km/h (2 Bft) W 270 1,6 C 0,8 C
20.01.2012 14:17 3,4 C 88 % 1008,7 hPa 0,0 l/m 14,0 km/h (3 Bft) W 270 1,6 C -0,1 C
20.01.2012 14:22 3,4 C 88 % 1008,5 hPa 0,0 l/m 17,3 km/h (3 Bft) W 270 1,6 C -0,6 C
20.01.2012 14:27 3,4 C 88 % 1008,5 hPa 0,0 l/m 13,7 km/h (3 Bft) W-SW 247 1,6 C -0,0 C
20.01.2012 14:32 3,4 C 88 % 1008,5 hPa 0,0 l/m 21,6 km/h (4 Bft) W 270 1,6 C -1,2 C
20.01.2012 14:37 3,4 C 88 % 1008,6 hPa 0,0 l/m 7,6 km/h (2 Bft) W 270 1,6 C 1,4 C
20.01.2012 14:42 3,4 C 88 % 1008,7 hPa 0,0 l/m 10,1 km/h (2 Bft) W-SW 247 1,6 C 0,7 C
20.01.2012 14:47 3,4 C 87 % 1008,7 hPa 0,0 l/m 18,7 km/h (3 Bft) W 270 1,4 C -0,8 C
20.01.2012 14:52 3,4 C 87 % 1008,7 hPa 0,0 l/m 10,8 km/h (2 Bft) W 270 1,4 C 0,6 C
20.01.2012 14:57 3,4 C 87 % 1008,7 hPa 0,0 l/m 13,3 km/h (3 Bft) W-NW 292 1,4 C 0,1 C
20.01.2012 15:02 3,4 C 87 % 1008,8 hPa 0,0 l/m 10,8 km/h (2 Bft) W-NW 292 1,4 C 0,6 C
20.01.2012 15:07 3,5 C 87 % 1008,9 hPa 0,0 l/m 8,3 km/h (2 Bft) SW 225 1,5 C 1,3 C
20.01.2012 15:12 3,5 C 87 % 1008,9 hPa 0,0 l/m 20,5 km/h (4 Bft) W-SW 247 1,5 C -0,9 C
20.01.2012 15:17 3,5 C 87 % 1008,9 hPa 0,0 l/m 23,4 km/h (4 Bft) W-NW 292 1,5 C -1,2 C
20.01.2012 15:22 3,5 C 87 % 1008,9 hPa 0,0 l/m 8,6 km/h (2 Bft) W-NW 292 1,5 C 1,2 C
20.01.2012 15:27 3,5 C 87 % 1009,0 hPa 0,0 l/m 12,6 km/h (3 Bft) W 270 1,5 C 0,3 C
20.01.2012 15:32 3,5 C 87 % 1009,1 hPa 0,0 l/m 6,5 km/h (2 Bft) W-SW 247 1,5 C 1,8 C
20.01.2012 15:37 3,5 C 87 % 1009,1 hPa 0,0 l/m 12,2 km/h (2 Bft) SW 225 1,5 C 0,4 C
20.01.2012 15:42 3,5 C 87 % 1009,1 hPa 0,0 l/m 12,2 km/h (2 Bft) W 270 1,5 C 0,4 C
20.01.2012 15:47 3,5 C 87 % 1009,1 hPa 0,0 l/m 12,2 km/h (2 Bft) W 270 1,5 C 0,4 C
20.01.2012 15:52 3,5 C 87 % 1009,2 hPa 0,0 l/m 9,7 km/h (2 Bft) S 180 1,5 C 0,9 C
20.01.2012 15:57 3,5 C 87 % 1009,3 hPa 0,0 l/m 8,3 km/h (2 Bft) W 270 1,5 C 1,3 C
20.01.2012 16:02 3,4 C 87 % 1009,2 hPa 0,0 l/m 14,4 km/h (3 Bft) W 270 1,4 C -0,1 C
20.01.2012 16:07 3,4 C 87 % 1009,2 hPa 0,0 l/m 9,4 km/h (2 Bft) NW 315 1,4 C 0,9 C
20.01.2012 16:12 3,3 C 87 % 1009,3 hPa 0,0 l/m 7,6 km/h (2 Bft) W-NW 292 1,3 C 1,3 C
20.01.2012 16:17 3,3 C 87 % 1009,4 hPa 0,0 l/m 7,2 km/h (2 Bft) W-NW 292 1,3 C 1,4 C
20.01.2012 16:22 3,2 C 87 % 1009,5 hPa 0,0 l/m 15,1 km/h (3 Bft) W-NW 292 1,2 C -0,5 C
20.01.2012 16:27 3,1 C 88 % 1009,6 hPa 0,0 l/m 4,0 km/h (1 Bft) W 270 1,3 C 3,1 C
20.01.2012 16:32 3,1 C 88 % 1009,6 hPa 0,0 l/m 7,2 km/h (2 Bft) W 270 1,3 C 1,1 C
20.01.2012 16:37 3,1 C 88 % 1009,6 hPa 0,0 l/m 7,2 km/h (2 Bft) W 270 1,3 C 1,1 C
20.01.2012 16:42 3,1 C 88 % 1009,6 hPa 0,0 l/m 4,0 km/h (1 Bft) S-SW 202 1,3 C 3,1 C
20.01.2012 16:47 3,0 C 88 % 1009,5 hPa 0,0 l/m 3,6 km/h (1 Bft) W-NW 292 1,2 C 3,0 C
20.01.2012 16:52 3,0 C 88 % 1009,6 hPa 0,0 l/m 5,0 km/h (1 Bft) W-SW 247 1,2 C 1,8 C
20.01.2012 16:57 3,0 C 88 % 1009,7 hPa 0,0 l/m 8,3 km/h (2 Bft) W 270 1,2 C 0,7 C
20.01.2012 17:02 3,1 C 89 % 1009,5 hPa 0,0 l/m 4,0 km/h (1 Bft) W 270 1,5 C 3,1 C
20.01.2012 17:07 3,1 C 89 % 1009,7 hPa 0,0 l/m 4,7 km/h (1 Bft) W 270 1,5 C 2,1 C
20.01.2012 17:12 3,1 C 89 % 1009,8 hPa 0,0 l/m 5,0 km/h (1 Bft) W 270 1,5 C 1,9 C
20.01.2012 17:17 3,2 C 89 % 1009,8 hPa 0,0 l/m 6,1 km/h (2 Bft) W 270 1,6 C 1,6 C
20.01.2012 17:22 3,1 C 89 % 1009,9 hPa 0,0 l/m 10,1 km/h (2 Bft) W 270 1,5 C 0,4 C
20.01.2012 17:27 3,1 C 88 % 1009,8 hPa 0,0 l/m 5,4 km/h (1 Bft) W 270 1,3 C 1,8 C
20.01.2012 17:32 3,1 C 88 % 1009,9 hPa 0,0 l/m 3,6 km/h (1 Bft) W-NW 292 1,3 C 3,1 C
20.01.2012 17:37 3,0 C 88 % 1009,9 hPa 0,0 l/m 2,2 km/h (1 Bft) W 270 1,2 C 3,0 C
20.01.2012 17:42 2,9 C 88 % 1010,0 hPa 0,0 l/m 5,8 km/h (2 Bft) W-NW 292 1,1 C 1,4 C
20.01.2012 17:47 2,9 C 88 % 1010,0 hPa 0,0 l/m 4,0 km/h (1 Bft) W 270 1,1 C 2,9 C
20.01.2012 17:52 2,9 C 88 % 1009,9 hPa 0,0 l/m 4,3 km/h (1 Bft) W 270 1,1 C 2,9 C
20.01.2012 17:57 2,8 C 88 % 1009,9 hPa 0,0 l/m 6,5 km/h (2 Bft) W 270 1,0 C 1,0 C
20.01.2012 18:02 2,7 C 88 % 1010,0 hPa 0,0 l/m 4,3 km/h (1 Bft) W 270 0,9 C 2,7 C
20.01.2012 18:07 2,6 C 88 % 1009,8 hPa 0,0 l/m 1,8 km/h (1 Bft) W 270 0,8 C 2,6 C
20.01.2012 18:12 2,6 C 88 % 1010,0 hPa 0,0 l/m 7,9 km/h (2 Bft) W 270 0,8 C 0,3 C
20.01.2012 18:17 2,6 C 88 % 1010,1 hPa 0,0 l/m 6,1 km/h (2 Bft) W 270 0,8 C 0,9 C
20.01.2012 18:22 2,5 C 88 % 1009,9 hPa 0,0 l/m 4,7 km/h (1 Bft) W-SW 247 0,7 C 1,4 C
20.01.2012 18:27 2,5 C 88 % 1010,1 hPa 0,0 l/m 12,2 km/h (2 Bft) W-SW 247 0,7 C -0,8 C
20.01.2012 18:32 2,4 C 88 % 1010,0 hPa 0,0 l/m 9,0 km/h (2 Bft) W-SW 247 0,6 C -0,2 C
20.01.2012 18:37 2,4 C 88 % 1009,8 hPa 0,0 l/m 6,1 km/h (2 Bft) W 270 0,6 C 0,7 C
20.01.2012 18:42 2,4 C 88 % 1009,9 hPa 0,0 l/m 9,7 km/h (2 Bft) SW 225 0,6 C -0,4 C
20.01.2012 18:47 2,3 C 88 % 1009,9 hPa 0,0 l/m 14,8 km/h (3 Bft) W-SW 247 0,5 C -1,5 C
20.01.2012 18:52 2,3 C 88 % 1010,0 hPa 0,0 l/m 7,9 km/h (2 Bft) W-SW 247 0,5 C -0,0 C
20.01.2012 18:57 2,2 C 88 % 1009,9 hPa 0,0 l/m 3,6 km/h (1 Bft) W-SW 247 0,4 C 2,2 C
20.01.2012 19:02 2,2 C 88 % 1009,9 hPa 0,0 l/m 5,8 km/h (2 Bft) W 270 0,4 C 0,6 C
20.01.2012 19:07 2,2 C 88 % 1009,9 hPa 0,0 l/m 5,4 km/h (1 Bft) W 270 0,4 C 0,7 C
20.01.2012 19:12 2,2 C 89 % 1009,9 hPa 0,0 l/m 4,0 km/h (1 Bft) W-SW 247 0,6 C 2,2 C
20.01.2012 19:17 2,2 C 89 % 1009,9 hPa 0,0 l/m 9,7 km/h (2 Bft) W-SW 247 0,6 C -0,6 C
20.01.2012 19:22 2,1 C 89 % 1009,8 hPa 0,0 l/m 5,0 km/h (1 Bft) W-SW 247 0,5 C 0,8 C
20.01.2012 19:27 2,1 C 89 % 1009,9 hPa 0,0 l/m 4,7 km/h (1 Bft) W 270 0,5 C 0,9 C
20.01.2012 19:32 2,1 C 89 % 1009,9 hPa 0,0 l/m 7,2 km/h (2 Bft) W 270 0,5 C -0,0 C
20.01.2012 19:37 2,1 C 89 % 1009,8 hPa 0,0 l/m 10,1 km/h (2 Bft) W-SW 247 0,5 C -0,8 C
20.01.2012 19:42 2,1 C 89 % 1009,9 hPa 0,0 l/m 7,6 km/h (2 Bft) W-SW 247 0,5 C -0,2 C
20.01.2012 19:47 2,1 C 89 % 1009,9 hPa 0,0 l/m 12,2 km/h (2 Bft) W-SW 247 0,5 C -1,3 C
20.01.2012 19:52 2,1 C 89 % 1009,9 hPa 0,0 l/m 8,6 km/h (2 Bft) W-SW 247 0,5 C -0,4 C
20.01.2012 19:57 2,1 C 89 % 1009,9 hPa 0,0 l/m 8,6 km/h (2 Bft) W-SW 247 0,5 C -0,4 C
20.01.2012 20:02 1,9 C 89 % 1010,1 hPa 0,0 l/m 18,0 km/h (3 Bft) W-SW 247 0,3 C -2,6 C
20.01.2012 20:07 1,9 C 89 % 1009,9 hPa 0,0 l/m 13,0 km/h (3 Bft) W-SW 247 0,3 C -1,7 C
20.01.2012 20:12 1,9 C 89 % 1010,1 hPa 0,0 l/m 7,6 km/h (2 Bft) W 270 0,3 C -0,4 C
20.01.2012 20:17 1,9 C 89 % 1010,0 hPa 0,0 l/m 6,1 km/h (2 Bft) W 270 0,3 C 0,1 C
20.01.2012 20:22 1,9 C 89 % 1010,1 hPa 0,0 l/m 5,0 km/h (1 Bft) W-SW 247 0,3 C 0,6 C
20.01.2012 20:27 1,9 C 89 % 1010,0 hPa 0,0 l/m 4,3 km/h (1 Bft) W-SW 247 0,3 C 1,9 C
20.01.2012 20:32 1,9 C 89 % 1010,1 hPa 0,0 l/m 10,1 km/h (2 Bft) W-SW 247 0,3 C -1,1 C
20.01.2012 20:37 1,9 C 89 % 1010,2 hPa 0,0 l/m 7,6 km/h (2 Bft) W 270 0,3 C -0,4 C
20.01.2012 20:42 1,9 C 89 % 1010,3 hPa 0,0 l/m 14,8 km/h (3 Bft) W 270 0,3 C -2,0 C
20.01.2012 20:47 1,9 C 89 % 1010,1 hPa 0,0 l/m 5,4 km/h (1 Bft) W-SW 247 0,3 C 0,4 C
20.01.2012 20:52 1,9 C 89 % 1010,3 hPa 0,0 l/m 4,7 km/h (1 Bft) W 270 0,3 C 0,7 C
20.01.2012 20:57 1,9 C 89 % 1010,3 hPa 0,0 l/m 7,2 km/h (2 Bft) W 270 0,3 C -0,3 C
20.01.2012 21:02 1,9 C 89 % 1010,3 hPa 0,0 l/m 9,0 km/h (2 Bft) W 270 0,3 C -0,8 C
20.01.2012 21:07 1,9 C 89 % 1010,6 hPa 0,0 l/m 8,3 km/h (2 Bft) W-SW 247 0,3 C -0,6 C
20.01.2012 21:12 1,9 C 89 % 1010,3 hPa 0,0 l/m 6,5 km/h (2 Bft) W-SW 247 0,3 C -0,0 C
20.01.2012 21:17 1,9 C 89 % 1010,5 hPa 0,0 l/m 9,4 km/h (2 Bft) W-NW 292 0,3 C -0,9 C
20.01.2012 21:22 1,8 C 89 % 1010,5 hPa 0,0 l/m 14,4 km/h (3 Bft) W-SW 247 0,2 C -2,1 C
20.01.2012 21:27 1,8 C 89 % 1010,6 hPa 0,0 l/m 7,6 km/h (2 Bft) W-SW 247 0,2 C -0,5 C
20.01.2012 21:32 1,8 C 89 % 1010,7 hPa 0,0 l/m 7,6 km/h (2 Bft) W-SW 247 0,2 C -0,5 C
20.01.2012 21:37 1,8 C 89 % 1010,7 hPa 0,0 l/m 3,6 km/h (1 Bft) W 270 0,2 C 1,8 C
20.01.2012 21:42 1,7 C 89 % 1010,7 hPa 0,0 l/m 6,5 km/h (2 Bft) W-SW 247 0,1 C -0,3 C
20.01.2012 21:47 1,6 C 89 % 1010,8 hPa 0,0 l/m 15,8 km/h (3 Bft) SW 225 -0,0 C -2,6 C
20.01.2012 21:52 1,6 C 89 % 1010,9 hPa 0,0 l/m 15,5 km/h (3 Bft) W-NW 292 -0,0 C -2,5 C
20.01.2012 21:57 1,6 C 89 % 1011,0 hPa 0,0 l/m 9,0 km/h (2 Bft) W 270 -0,0 C -1,1 C
20.01.2012 22:02 1,6 C 89 % 1010,8 hPa 0,0 l/m 9,7 km/h (2 Bft) W-SW 247 -0,0 C -1,3 C
20.01.2012 22:07 1,6 C 89 % 1010,9 hPa 0,0 l/m 11,2 km/h (2 Bft) W-SW 247 -0,0 C -1,7 C
20.01.2012 22:12 1,6 C 89 % 1010,9 hPa 0,0 l/m 7,6 km/h (2 Bft) W-SW 247 -0,0 C -0,7 C
20.01.2012 22:17 1,5 C 89 % 1011,0 hPa 0,0 l/m 8,3 km/h (2 Bft) W 270 -0,1 C -1,1 C
20.01.2012 22:22 1,5 C 89 % 1011,2 hPa 0,0 l/m 13,0 km/h (3 Bft) W-SW 247 -0,1 C -2,2 C
20.01.2012 22:27 1,5 C 89 % 1011,0 hPa 0,0 l/m 6,1 km/h (2 Bft) W 270 -0,1 C -0,3 C
20.01.2012 22:32 1,5 C 89 % 1011,2 hPa 0,0 l/m 7,6 km/h (2 Bft) W 270 -0,1 C -0,9 C
20.01.2012 22:37 1,6 C 89 % 1011,3 hPa 0,0 l/m 7,6 km/h (2 Bft) W 270 -0,0 C -0,7 C
20.01.2012 22:42 1,6 C 90 % 1011,2 hPa 0,0 l/m 5,8 km/h (2 Bft) W-SW 247 0,1 C -0,1 C
20.01.2012 22:47 1,6 C 90 % 1011,4 hPa 0,0 l/m 5,8 km/h (2 Bft) W 270 0,1 C -0,1 C
20.01.2012 22:52 1,8 C 90 % 1011,3 hPa 0,0 l/m 7,6 km/h (2 Bft) W-SW 247 0,3 C -0,5 C
20.01.2012 22:57 1,8 C 90 % 1011,3 hPa 0,0 l/m 8,6 km/h (2 Bft) W 270 0,3 C -0,8 C
20.01.2012 23:02 1,8 C 89 % 1011,2 hPa 0,0 l/m 11,9 km/h (2 Bft) W 270 0,2 C -1,6 C
20.01.2012 23:07 1,8 C 89 % 1011,6 hPa 0,0 l/m 5,4 km/h (1 Bft) W 270 0,2 C 0,3 C
20.01.2012 23:12 1,8 C 89 % 1011,6 hPa 0,0 l/m 6,8 km/h (2 Bft) NW 315 0,2 C -0,2 C
20.01.2012 23:17 1,8 C 89 % 1011,4 hPa 0,0 l/m 16,9 km/h (3 Bft) W-SW 247 0,2 C -2,5 C
20.01.2012 23:22 1,8 C 89 % 1011,5 hPa 0,0 l/m 13,0 km/h (3 Bft) W 270 0,2 C -1,8 C
20.01.2012 23:27 1,8 C 89 % 1011,4 hPa 0,0 l/m 4,3 km/h (1 Bft) SW 225 0,2 C 1,8 C
20.01.2012 23:32 1,6 C 89 % 1011,5 hPa 0,0 l/m 13,0 km/h (3 Bft) W 270 -0,0 C -2,1 C
20.01.2012 23:37 1,6 C 89 % 1011,4 hPa 0,0 l/m 16,2 km/h (3 Bft) W-SW 247 -0,0 C -2,6 C
20.01.2012 23:42 1,6 C 89 % 1011,5 hPa 0,0 l/m 5,8 km/h (2 Bft) W 270 -0,0 C -0,1 C
20.01.2012 23:47 1,6 C 89 % 1011,6 hPa 0,0 l/m 20,9 km/h (4 Bft) W-SW 247 -0,0 C -3,3 C
20.01.2012 23:52 1,6 C 89 % 1011,5 hPa 0,0 l/m 14,0 km/h (3 Bft) W-SW 247 -0,0 C -2,3 C
20.01.2012 23:57 1,5 C 89 % 1011,7 hPa 0,0 l/m 4,7 km/h (1 Bft) W 270 -0,1 C 0,2 C
_ Min-Zeit 22:17 07:57 07:07 - 18:07 - - 22:17 23:47
Minimum _ 1,5 C 85 % 1002,8 hPa - 1,8 km/h (1 Bft) - - -0,1 C -3,3 C
_ Max-Zeit 15:07 22:42 23:57 03:47 06:22 - - 14:07 16:27
Maximum _ 3,5 C 90 % 1011,7 hPa 0,5 l/m 31,0 km/h
W-SW (5 Bft)
- - 1,6 C 3,1 C
Durchschnitt _ 2,7 C 88 % 1007,7 hPa #2,6 l/m 11,8 km/h (2 Bft) W - 0,9 C -0,2 C
(c) by David Heller